Flag for Germany Weather past 2 weeks in Bad Oldesloe, Schleswig-Holstein, Germany

Now
81 °F

Passing clouds.


Feels Like: 80 °F
Forecast: 58 / 65 °F
Wind: 9 mph from Southwest

Location: Luebeck-Blankensee

Current Time: Jul 7, 2015 at 1:09:26 PM

Latest Report: Jul 7, 2015 at 12:50 PM


Visibility: N/A

Pressure: 29.86 "Hg

Humidity: 39%

Dew point: 54 °F

Location of Bad OldesloeLocation

Historic Weather in Bad Oldesloe — Graph

°F

Bad Oldesloe temperature yesterday

Maximum temperature yesterday: 72 °F (at 11:50 AM)
Minimum temperature yesterday: 59 °F (at 10:50 PM)
Average temperature yesterday: 68 °F

Past Weeks' High & Low Weather Summary

 TemperatureHumidityPressure
High95 °F (Jul 4, 3:20 PM)94% (Jun 22, 3:20 PM)30.27 "Hg (Jun 22, 3:20 PM)
Low52 °F (Jun 22, 3:20 PM)29% (Jul 2, 3:50 PM)29.65 "Hg (Jun 22, 8:20 PM)
Average70 °F61%30.06 "Hg
* Reported Jun 22 11:20 AM — Jul 7 11:50 AM, Bad Oldesloe, Weather by CustomWeather, © 2015

Note: Actual official high and low records may vary slightly from our data, if they occured in-between our weather recording intervals... More about our weather records

Advertising

Bad Oldesloe weather history for previous 24 hours

 ConditionsComfort  
Time TempWeatherWind HumidityBarometerVisibility
11:50 AM
Tue, Jul 7
79 °FPassing clouds.9 mph42%29.89 "HgN/A
11:20 AM77 °FPassing clouds.9 mph44%29.89 "HgN/A
10:50 AM77 °FPassing clouds.10 mph47%29.92 "HgN/A
10:20 AM73 °FPassing clouds.9 mph53%29.92 "HgN/A
9:50 AM72 °FPassing clouds.10 mph57%29.92 "HgN/A
9:20 AM70 °FPassing clouds.6 mph60%29.95 "HgN/A
8:50 AM68 °FPassing clouds.6 mph64%29.95 "HgN/A
8:20 AM66 °FPassing clouds.7 mph64%29.95 "HgN/A
7:50 AM63 °FPassing clouds.6 mph68%29.98 "HgN/A
7:20 AM61 °FPassing clouds.5 mph72%29.98 "HgN/A
6:50 AM61 °FSunny.1 mph77%29.98 "Hg10 mi
10:50 PM
Mon, Jul 6
59 °FClear.2 mph82%30.07 "Hg10 mi
10:20 PM61 °FPassing clouds.3 mph77%30.07 "HgN/A
9:50 PM64 °FPassing clouds.3 mph68%30.07 "HgN/A
9:20 PM64 °FPassing clouds.5 mph68%30.07 "HgN/A
8:50 PM68 °FPassing clouds.6 mph60%30.07 "HgN/A
8:20 PM68 °FPassing clouds.8 mph60%30.07 "HgN/A
7:50 PM70 °FPassing clouds.7 mph57%30.07 "HgN/A
7:20 PM70 °FPassing clouds.8 mph57%30.07 "HgN/A
6:50 PM72 °FPassing clouds.6 mph53%30.07 "HgN/A
6:20 PM72 °FPassing clouds.8 mph53%30.07 "HgN/A
5:50 PM72 °FScattered clouds.8 mph53%30.09 "HgN/A
5:20 PM72 °FPassing clouds.7 mph50%30.09 "HgN/A
4:50 PM72 °FSunny.13 mph50%30.09 "Hg10 mi
4:20 PM72 °FPassing clouds.10 mph50%30.09 "HgN/A
3:50 PM72 °FScattered clouds.12 mph50%30.09 "HgN/A
3:20 PM72 °FScattered clouds.12 mph53%30.09 "HgN/A
2:50 PM72 °FScattered clouds.12 mph50%30.09 "HgN/A
2:20 PM72 °FScattered clouds.10 mph50%30.09 "HgN/A
1:50 PM72 °FScattered clouds.13 mph47%30.09 "HgN/A
1:20 PM72 °FScattered clouds.12 mph50%30.09 "HgN/A
Weather by CustomWeather, © 2015

See weather overviewHow to use our weather pages